Regional Weather Roundup
Issued by NWS

Home | Current Version | Previous Version | Graphics & Text | Print | Product List | Glossary On
Versions: 1 2 3 4 5 6 7 8 9 10 11 12 13 14 15 16 17 18 19 20 21 22 23 24 25 26 27 28 29 30 31 32 33 34 35 36 37 38 39 40 41 42 43 44 45 46 47 48 49 50
000
ASUS43 KLMK 290102
RWRKY
KENTUCKY REGIONAL WEATHER ROUNDUP
NATIONAL WEATHER SERVICE LOUISVILLE KY
900 PM EDT THU JUL 28 2016

NOTE "FAIR" INDICATES FEW OR NO CLOUDS BELOW 12,000 FEET
WITH NO SIGNIFICANT WEATHER AND/OR OBSTRUCTIONS TO VISIBILITY.

KYZ001>023-026-027-061>063-070>075-290200-
WESTERN AND SOUTH CENTRAL KENTUCKY

CITY           SKY/WX    TMP DP  RH WIND       PRES   REMARKS
PADUCAH        CLOUDY    82  72  71 W7        29.89R
HENDERSON      MOCLDY    77  70  78 E7        29.87R THUNDER
OWENSBORO      PTCLDY    78  71  79 SW7       29.90R
HOPKINSVILLE   NOT AVBL
BOWLING GREEN  CLEAR     80  73  79 SE6       29.92R
GLASGOW        NOT AVBL
$$

KYZ024-025-028>034-038-045-046-053-290200-
NORTH CENTRAL KENTUCKY

CITY           SKY/WX    TMP DP  RH WIND       PRES   REMARKS
LOUISVILLE/SDF MOCLDY    79  65  62 NW3       29.89S
LOUISVILLE/LOU PTCLDY    76  66  71 CALM      29.90S
FORT KNOX      NOT AVBL
$$

KYZ035>037-039>044-047>052-055>060-089>105-290200-
NORTHEAST KENTUCKY

CITY           SKY/WX    TMP DP  RH WIND       PRES   REMARKS
LEXINGTON      MOCLDY    75  71  87 S5        29.93R
COVINGTON      MOCLDY    78  73  84 W3        29.91R
FRANKFORT      MOCLDY    77  72  84 S6        29.90S
$$

KYZ054-064>069-076>088-106>120-290200-
SOUTHEAST KENTUCKY

CITY           SKY/WX    TMP DP  RH WIND       PRES   REMARKS
JACKSON        MOCLDY    71  69  93 CALM      29.95F FOG
LONDON         PTCLDY    72  68  87 CALM      29.95F
SOMERSET       CLEAR     72  72 100 CALM      29.96F
MIDDLESBORO    CLOUDY    72  71  99 CALM      29.96S
MONTICELLO     PTCLDY   N/A N/A N/A MISG      29.97S
$$




USA.gov is the U.S. government's official web portal to all federal, state and local government web resources and services.